Thedford, NE

2:08 PM CDT on April 25, 2017 (GMT -0500)
Thedford

Weather History for KTIF - September, 2012

Change the Weather History Date:

Tuesday, September 25, 2012

  Actual Average (KANW) Record (KANW)
Temperature  
Mean Temperature 58 °F -  
Max Temperature 77 °F 68 °F 88 °F (2014)
Min Temperature 40 °F 43 °F 30 °F (2003)
Degree Days  
Heating Degree Days 6    
Growing Degree Days 8 (Base 50)    
Moisture  
Dew Point 36 °F    
Average Humidity 51    
Maximum Humidity 88    
Minimum Humidity 18    
Precipitation  
Precipitation 0.00 in - - ()
Sea Level Pressure  
Sea Level Pressure 29.94 in    
Wind  
Wind Speed 3 mph (NW)    
Max Wind Speed 10 mph    
Max Gust Speed -    
Visibility 10 miles    
Events      
Averages and records for this station are not official NWS values.
T = Trace of Precipitation, MM = Missing Value Source: NWS Daily Summary

Daily Weather History Graph

Daily Weather History Graph

Search for Another Location

Airport or City:

Trip Planner

Search our weather history database for the weather conditions in past years. The results will help you decide how hot, cold, wet, or windy it might be!

Date:

Astronomy

Sep. 25, 2012 Rise Set
Actual Time 7:33 AM CDT 7:33 PM CDT
Civil Twilight 7:05 AM CDT 8:01 PM CDT
Nautical Twilight 6:33 AM CDT 8:33 PM CDT
Astronomical Twilight 5:59 AM CDT 9:06 PM CDT
Moon 5:02 PM CDT 2:53 AM CDT
Length of Visible Light 12h 55m
Length of Day
11h 59m
Waxing Gibbous, 80% of the Moon is Illuminated
Sep 25
Waxing Gibbous
Sep 29
Full
Oct 8
Last Quarter
Oct 15
New
Oct 21
First Quarter

Hourly Weather History & Observations

Time (CDT) Temp. Windchill Dew Point Humidity Pressure Visibility Wind Dir Wind Speed Gust Speed Precip Events Conditions
12:15 AM 47.3 °F - 42.8 °F 84% 29.93 in 10.0 mi WNW 4.6 mph - N/A   Clear
12:55 AM 46.0 °F - 41.5 °F 84% 29.93 in 10.0 mi Calm Calm - N/A   Clear
1:15 AM 46.4 °F 45.2 °F 41.0 °F 81% 29.93 in 10.0 mi West 3.5 mph - N/A   Clear
1:35 AM 46.6 °F - 41.2 °F 81% 29.92 in 10.0 mi West 4.6 mph - N/A   Clear
1:55 AM 45.9 °F 44.6 °F 40.6 °F 82% 29.92 in 10.0 mi West 3.5 mph - N/A   Clear
2:15 AM 44.1 °F 41.5 °F 39.7 °F 85% 29.92 in 10.0 mi West 4.6 mph - N/A   Clear
2:35 AM 44.1 °F - 39.2 °F 83% 29.92 in 10.0 mi Calm Calm - N/A   Clear
2:55 AM 45.0 °F 42.6 °F 39.9 °F 82% 29.91 in 10.0 mi West 4.6 mph - N/A   Clear
3:15 AM 44.4 °F 42.0 °F 38.8 °F 81% 29.92 in 10.0 mi West 4.6 mph - N/A   Clear
3:35 AM 44.4 °F 42.9 °F 38.7 °F 80% 29.92 in 10.0 mi West 3.5 mph - N/A   Clear
3:55 AM 44.1 °F 41.5 °F 38.5 °F 81% 29.92 in 10.0 mi West 4.6 mph - N/A   Clear
4:15 AM 43.7 °F 42.1 °F 38.7 °F 82% 29.92 in 10.0 mi West 3.5 mph - N/A   Clear
4:35 AM 41.7 °F 39.8 °F 37.8 °F 86% 29.92 in 10.0 mi West 3.5 mph - N/A   Clear
4:55 AM 44.1 °F 40.8 °F 39.4 °F 84% 29.92 in 10.0 mi West 5.8 mph - N/A   Clear
5:15 AM 44.8 °F 39.4 °F 40.1 °F 84% 29.93 in 10.0 mi SW 10.4 mph - N/A   Clear
5:35 AM 41.9 °F 40.0 °F 37.9 °F 86% 29.93 in 10.0 mi WNW 3.5 mph - N/A   Clear
5:55 AM 41.2 °F 39.2 °F 37.9 °F 88% 29.92 in 10.0 mi WNW 3.5 mph - N/A   Clear
6:15 AM 42.6 °F 40.9 °F 38.5 °F 85% 29.92 in 10.0 mi West 3.5 mph - N/A   Clear
6:35 AM 42.8 °F - 37.9 °F 83% 29.92 in 10.0 mi Calm Calm - N/A   Clear
6:55 AM 41.7 °F 38.8 °F 37.4 °F 85% 29.92 in 10.0 mi West 4.6 mph - N/A   Clear
7:15 AM 40.1 °F 38.0 °F 36.9 °F 88% 29.93 in 10.0 mi West 3.5 mph - N/A   Clear
7:35 AM 40.3 °F - 36.3 °F 86% 29.93 in 10.0 mi Calm Calm - N/A   Clear
7:55 AM 40.1 °F 36.9 °F 36.1 °F 86% 29.93 in 10.0 mi West 4.6 mph - N/A   Clear
8:15 AM 41.0 °F 38.0 °F 37.0 °F 86% 29.93 in 10.0 mi West 4.6 mph - N/A   Clear
8:35 AM 44.1 °F 41.5 °F 38.7 °F 81% 29.93 in 10.0 mi West 4.6 mph - N/A   Clear
8:55 AM 47.1 °F - 39.4 °F 74% 29.93 in 10.0 mi WNW 4.6 mph - N/A   Clear
9:15 AM 50.2 °F - 40.3 °F 69% 29.94 in 10.0 mi WNW 3.5 mph - N/A   Clear
9:35 AM 54.0 °F - 41.0 °F 62% 29.94 in 10.0 mi NW 3.5 mph - N/A   Clear
9:55 AM 57.2 °F - 41.5 °F 56% 29.95 in 10.0 mi NW 3.5 mph - N/A   Clear
10:15 AM 61.9 °F - 41.9 °F 48% 29.95 in 10.0 mi Calm Calm - N/A   Clear
10:35 AM 64.0 °F - 41.9 °F 44% 29.96 in 10.0 mi Calm Calm - N/A   Clear
10:55 AM 65.5 °F - 42.3 °F 43% 29.96 in 10.0 mi Calm Calm - N/A   Clear
11:15 AM 66.9 °F - 42.4 °F 41% 29.96 in 10.0 mi Calm Calm - N/A   Clear
11:35 AM 70.7 °F - 41.0 °F 34% 29.96 in 10.0 mi East 5.8 mph - N/A   Clear
11:55 AM 72.9 °F - 40.6 °F 31% 29.96 in 10.0 mi ENE 4.6 mph - N/A   Clear
12:15 PM 73.9 °F - 39.2 °F 28% 29.96 in 10.0 mi Calm Calm - N/A   Clear
12:35 PM 74.8 °F - 38.1 °F 26% 29.96 in 10.0 mi Calm Calm - N/A   Clear
12:55 PM 75.2 °F - 36.3 °F 24% 29.96 in 10.0 mi SSW 3.5 mph - N/A   Clear
1:15 PM 76.8 °F - 36.7 °F 23% 29.96 in 10.0 mi West 3.5 mph - N/A   Clear
2:15 PM 77.9 °F - 34.0 °F 20% 29.94 in 10.0 mi NNE 6.9 mph - N/A   Clear
2:35 PM 76.1 °F - 33.6 °F 21% 29.93 in 10.0 mi North 3.5 mph - N/A   Clear
2:55 PM 75.4 °F - 34.0 °F 22% 29.93 in 10.0 mi North 3.5 mph - N/A   Clear
3:15 PM 74.7 °F - 34.9 °F 23% 29.93 in 10.0 mi Calm Calm - N/A   Clear
3:35 PM 74.3 °F - 33.6 °F 23% 29.93 in 10.0 mi North 3.5 mph - N/A   Mostly Cloudy
3:55 PM 74.3 °F - 34.2 °F 23% 29.92 in 10.0 mi Calm Calm - N/A   Overcast
4:15 PM 74.3 °F - 34.3 °F 23% 29.92 in 10.0 mi Calm Calm - N/A   Overcast
4:35 PM 74.5 °F - 34.0 °F 23% 29.92 in 10.0 mi Calm Calm - N/A   Overcast
4:55 PM 75.4 °F - 33.6 °F 22% 29.92 in 10.0 mi NE 4.6 mph - N/A   Mostly Cloudy
5:15 PM 76.1 °F - 33.4 °F 21% 29.92 in 10.0 mi NE 5.8 mph - N/A   Clear
5:35 PM 76.3 °F - 32.0 °F 20% 29.92 in 10.0 mi NE 6.9 mph - N/A   Clear
5:55 PM 77.2 °F - 32.0 °F 19% 29.92 in 10.0 mi ENE 5.8 mph - N/A   Clear
6:15 PM 77.0 °F - 30.0 °F 18% 29.92 in 10.0 mi ENE 5.8 mph - N/A   Clear
6:35 PM 75.6 °F - 31.6 °F 20% 29.93 in 10.0 mi ENE 6.9 mph - N/A   Clear
6:55 PM 73.9 °F - 31.1 °F 21% 29.93 in 10.0 mi ENE 4.6 mph - N/A   Clear
7:15 PM 71.1 °F - 31.1 °F 23% 29.94 in 10.0 mi East 4.6 mph - N/A   Clear
7:55 PM 65.1 °F - 31.1 °F 28% 29.95 in 10.0 mi Calm Calm - N/A   Clear
8:15 PM 64.8 °F - 30.6 °F 28% 29.96 in 10.0 mi Calm Calm - N/A   Clear
8:35 PM 63.9 °F - 30.4 °F 28% 29.97 in 10.0 mi Calm Calm - N/A   Clear
8:55 PM 63.0 °F - 29.3 °F 28% 29.97 in 10.0 mi Calm Calm - N/A   Clear
9:15 PM 60.8 °F - 28.9 °F 30% 29.98 in 10.0 mi Calm Calm - N/A   Clear
9:35 PM 60.1 °F - 28.4 °F 30% 29.98 in 10.0 mi Calm Calm - N/A   Clear
9:55 PM 59.5 °F - 28.4 °F 31% 29.98 in 10.0 mi Calm Calm - N/A   Clear
10:15 PM 58.8 °F - 28.8 °F 32% 29.99 in 10.0 mi Calm Calm - N/A   Clear
10:35 PM 55.8 °F - 29.1 °F 36% 29.99 in 10.0 mi Calm Calm - N/A   Clear
10:55 PM 55.0 °F - 30.2 °F 39% 29.99 in 10.0 mi Calm Calm - N/A   Clear
11:35 PM 50.4 °F - 30.0 °F 46% 29.99 in 10.0 mi Calm Calm - N/A   Clear